This demonstration page uses our WeatherBlox Daily Observations layout. Learn more.

Hourly Observations for November 24, 2020

Temp ( °F °C ) Dew Point ( °F °C ) Humidity (%) Winds ( mph kmh ) Pressure ( in mb ) Visibility ( mi km ) Precip ( " mm )
12:15 am 00:15 Cloudy with Mist and Fog 43 6.3 42 5.7 96 96 SE 16 26 29.79 1009 2.5 4.02335 0 0
12:35 am 00:35 Cloudy with Mist and Fog 44 6.5 43 6 97 97 SE 15 24 29.78 1009 3 4.82802 0 0
12:55 am 00:55 Cloudy with Mist and Fog 44 6.7 43 6.2 97 97 SE 13 20 29.79 1009 3 4.82802 0 0
1:15 am 01:15 Cloudy with Mist and Fog 45 7 44 6.5 97 97 SE 12 19 29.78 1008 4 6.43736 0 0
1:35 am 01:35 Cloudy with Mist and Fog 45 7.1 44 6.6 97 97 SE 12 19 29.77 1008 3 4.82802 0 0
1:55 am 01:55 Cloudy with Mist and Fog 45 7.3 44 6.8 97 97 SE 9 15 29.76 1008 3 4.82802 0 0
2:15 am 02:15 Cloudy with Mist and Fog 46 7.5 45 7 97 97 ESE 8 13 29.75 1008 3 4.82802 0 0
2:35 am 02:35 Cloudy with Mist and Fog 46 7.6 45 7.1 97 97 ESE 8 13 29.75 1008 3 4.82802 0 0
2:55 am 02:55 Cloudy with Mist and Fog 46 7.8 45 7.3 97 97 SE 9 15 29.74 1007 3 4.82802 0 0
3:15 am 03:15 Cloudy with Mist and Fog 47 8.1 46 7.6 97 97 SE 9 15 29.74 1007 3 4.82802 0 0
3:35 am 03:35 Cloudy with Mist and Fog 47 8.3 46 7.8 97 97 SE 9 15 29.73 1007 4 6.43736 0 0
3:55 am 03:55 Cloudy with Mist and Fog 47 8.5 46 8 97 97 SE 8 13 29.73 1007 4 6.43736 0 0
4:15 am 04:15 Cloudy with Mist and Fog 47 8.6 47 8.1 97 97 SE 7 11 29.73 1007 4 6.43736 0 0
4:35 am 04:35 Cloudy with Drizzle 48 8.7 47 8.2 97 97 SE 5 7 29.72 1007 3 4.82802 0 0
4:55 am 04:55 Cloudy with Drizzle 47 8.6 47 8.1 97 97 NNE 5 7 29.73 1007 2.5 4.02335 0 0
5:15 am 05:15 Cloudy with Rain 47 8.5 46 8 97 97 NNE 6 9 29.72 1006 2 3.21868 0 0
5:35 am 05:35 Cloudy with Thunderstorms 46 7.7 45 7.2 97 97 NNE 9 15 29.73 1007 2.5 4.02335 0.01 0.254
5:55 am 05:55 Cloudy with Drizzle 44 6.6 43 6.1 97 97 NNE 14 22 29.75 1008 5 8.0467 0.02 0.508
6:15 am 06:15 Cloudy with Drizzle 43 6 42 5.5 97 97 NNE 15 24 29.76 1008 4 6.43736 0.01 0.254
6:35 am 06:35 Cloudy with Drizzle 42 5.6 41 5.1 97 97 N 13 20 29.76 1008 4 6.43736 0.01 0.254
6:55 am 06:55 Cloudy with Drizzle 42 5.3 41 4.8 97 97 N 15 24 29.78 1009 5 8.0467 0.02 0.508
7:15 am 07:15 Cloudy with Light Rain 41 4.8 40 4.3 97 97 N 20 31 29.79 1009 7 11.26538 0 0
7:35 am 07:35 Cloudy with Light Rain 40 4.3 39 3.9 97 97 N 15 24 29.8 1009 5 8.0467 0 0
7:55 am 07:55 Cloudy with Light Rain 40 4.3 39 3.9 97 97 N 14 22 29.81 1010 5 8.0467 0.01 0.254
8:15 am 08:15 Cloudy with Drizzle 40 4.3 39 4 98 98 N 16 26 29.82 1010 7 11.26538 0.01 0.254
8:35 am 08:35 Cloudy with Drizzle 39 4.1 39 3.7 97 97 N 17 28 29.82 1010 5 8.0467 0.01 0.254
8:55 am 08:55 Cloudy with Mist and Fog 40 4.3 39 4 98 98 N 17 28 29.81 1010 5 8.0467 0.01 0.254
9:15 am 09:15 Cloudy with Mist and Fog 40 4.4 39 4 97 97 N 20 31 29.82 1010 5 8.0467 0 0
9:35 am 09:35 Cloudy 40 4.5 39 4 97 97 N 20 31 29.83 1010 7 11.26538 0 0
9:55 am 09:55 Cloudy 40 4.5 39 4 97 97 N 21 33 29.83 1010 10 16.0934 0 0
10:10 am 10:10 Cloudy 40 4.5 39 4 97 97 N 18 30 29.83 1010 10 16.0934 0 0
10:35 am 10:35 Cloudy 40 4.6 39 4 96 96 N 20 31 29.84 1011 10 16.0934 0 0
10:55 am 10:55 Cloudy 40 4.6 39 3.8 95 95 N 18 30 29.84 1011 10 16.0934 0 0
11:10 am 11:10 Cloudy 40 4.7 39 3.8 94 94 N 15 24 29.85 1011 10 16.0934 0 0
11:35 am 11:35 Cloudy 40 4.6 38 3.5 93 93 N 15 24 29.85 1011 10 16.0934 0 0
11:55 am 11:55 Cloudy 39 4.1 37 2.5 89 89 N 17 28 29.87 1011 10 16.0934 0 0
12:15 pm 12:15 Cloudy with Drizzle 37 3 33 0.6 84 84 N 21 33 29.88 1012 10 16.0934 0 0
12:35 pm 12:35 Cloudy 37 3 33 0.3 83 83 N 15 24 29.88 1012 10 16.0934 0 0
12:55 pm 12:55 Cloudy 37 3 31 -0.4 79 79 N 18 30 29.88 1012 10 16.0934 0 0
1:15 pm 13:15 Cloudy 37 3 32 -0.1 80 80 N 16 26 29.88 1012 10 16.0934 0 0
1:35 pm 13:35 Cloudy 38 3.1 31 -0.6 77 77 N 16 26 29.88 1012 10 16.0934 0 0
1:55 pm 13:55 Cloudy with Light Rain 38 3.3 32 0 79 79 N 14 22 29.85 1011 10 16.0934 0 0
2:15 pm 14:15 Cloudy 39 4 32 0 75 75 N 18 30 29.85 1011 10 16.0934 0 0
2:35 pm 14:35 Cloudy 39 3.8 33 0.4 79 79 N 20 31 29.86 1011 10 16.0934 0 0
2:55 pm 14:55 Cloudy 39 3.7 34 1.1 83 83 N 21 33 29.86 1011 10 16.0934 0 0
3:15 pm 15:15 Cloudy 38 3.6 33 0.6 81 81 N 20 31 29.86 1011 10 16.0934 0 0
3:35 pm 15:35 Cloudy with Rain 38 3.4 33 0.4 81 81 N 17 28 29.85 1011 7 11.26538 0 0
3:55 pm 15:55 Cloudy with Light Rain 37 2.9 33 0.4 84 84 N 12 19 29.87 1011 10 16.0934 0.01 0.254
4:15 pm 16:15 Cloudy 38 3.3 34 1 85 85 N 12 19 29.86 1011 10 16.0934 0 0
4:35 pm 16:35 Cloudy 37 3 31 -0.3 79 79 N 14 22 29.88 1012 10 16.0934 0 0
4:55 pm 16:55 Mostly Cloudy 37 2.9 31 -0.7 77 77 N 12 19 29.89 1012 10 16.0934 0 0
5:15 pm 17:15 Cloudy 37 2.9 29 -1.5 73 73 N 12 19 29.89 1012 10 16.0934 0 0
5:35 pm 17:35 Cloudy 37 2.7 30 -1.3 75 75 N 10 17 29.9 1012 10 16.0934 0 0
5:55 pm 17:55 Cloudy 37 2.7 30 -1.1 76 76 N 8 13 29.91 1013 10 16.0934 0 0
6:15 pm 18:15 Cloudy 37 2.8 30 -1 76 76 N 8 13 29.93 1013 10 16.0934 0 0
6:35 pm 18:35 Cloudy 37 2.7 31 -0.6 79 79 N 7 11 29.93 1014 10 16.0934 0 0
6:55 pm 18:55 Cloudy 37 2.7 31 -0.4 80 80 N 7 11 29.94 1014 10 16.0934 0 0
7:15 pm 19:15 Cloudy 37 2.9 31 -0.3 80 80 N 10 17 29.96 1014 10 16.0934 0 0
7:35 pm 19:35 Cloudy 38 3.1 30 -1.3 73 73 N 14 22 29.96 1014 10 16.0934 0 0
7:55 pm 19:55 Cloudy 38 3.1 28 -2 70 70 N 15 24 29.96 1014 10 16.0934 0 0
8:15 pm 20:15 Cloudy 37 3 28 -2.5 67 67 N 17 28 29.95 1014 10 16.0934 0 0
8:35 pm 20:35 Cloudy 37 2.9 27 -2.6 67 67 N 17 28 29.95 1014 10 16.0934 0 0
8:55 pm 20:55 Cloudy 37 2.8 27 -3 66 66 N 18 30 29.95 1014 10 16.0934 0 0
9:15 pm 21:15 Cloudy 37 2.6 27 -3 67 67 N 15 24 29.96 1015 10 16.0934 0 0
9:35 pm 21:35 Cloudy 36 2.4 27 -3 68 68 N 14 22 29.96 1015 10 16.0934 0 0
9:55 pm 21:55 Cloudy 36 2.2 26 -3.1 68 68 N 14 22 29.96 1015 10 16.0934 0 0
10:15 pm 22:15 Cloudy 35 1.6 26 -3.4 70 70 N 13 20 29.97 1015 10 16.0934 0 0
10:35 pm 22:35 Partly Cloudy 34 1.2 25 -3.8 70 70 N 13 20 29.97 1015 10 16.0934 0 0
10:55 pm 22:55 Clear 34 1.3 25 -4 68 68 N 13 20 29.97 1015 10 16.0934 0 0
11:15 pm 23:15 Clear 35 1.5 24 -4.6 64 64 N 16 26 29.96 1015 10 16.0934 0 0
11:35 pm 23:35 Clear 34 1.2 24 -4.6 66 66 N 16 26 29.95 1014 10 16.0934 0 0
11:55 pm 23:55 Clear 34 1 24 -4.5 67 67 N 13 20 29.95 1014 10 16.0934 0 0

Powered by AerisWeather